印度国家卫星-3DS星 (INSAT-3DS)

导读 | 豆包AI

INSAT 3DS是印度于北京时间2024年2月17日发射的新一代地球静止轨道气象卫星,属于印度INSAT系列气象卫星,旨在接替已接近寿命终点的老卫星。该卫星发射质量约2.27吨,预计运行至2030年,配备多光谱成像仪、大气探测仪器及搜救、数据中继载荷,可提供气象观测、大气参数剖面,支持天气预报、环境监测与搜救任务,将提升印度气象服务能力。

基本信息
目录编号:
58990
目录名称:
INSAT 3DS
国际标识:
2024-033A
轨道中心:
EARTH
卫星名称:
印度国家卫星-3DS星
卫星全名:
印度国家卫星-3DS星 (INSAT-3DS)
卫星状态:
在轨 (已飞行804 天)
发射日期:
2024-02-17 UTC
国别 :
印度 (IN)
星等 :
--
轨道信息
数据来源 国际轨道数据 AOE轨道数据
星历时间 2026-05-01T06:20:34+0800
7小时前
查看轨道信息
2026-05-01T05:00:00+0800
9小时前
查看轨道信息
半长轴 42164.476km 42164.448km
偏心率 0.0001925 0.0001941
轨道倾角 0.102° 0.101°
近地点辐角 308.261° 309.107°
升交点赤经 87.484° 88.233°
平近点角 240.327° 218.535°
近地点 35778.222km 35778.126km
远地点 35794.456km 35794.496km
周期 1436.084分钟 1436.082分钟
每日圈数 1.002727 1.002728
详细信息
平衡模式:
三轴稳定
覆盖范围:
全球
运营商:
印度空间研究组织
运营商所在国:
印度
制造商(研发单位):
印度空间研究组织
制造商所在国:
印度
使用方式:
暂无
卫星简介
印度先后发展了“印度卫星”(INSAT)和“地球静止卫星”(GSAT)两大静止轨道通信卫星系列,共发射卫星28颗,其中INSAT系列的前4颗向美国购买,后续卫星均由ISRO研制。在自行研制的24颗通信卫星中,有19颗发射成功,3颗发射失败,2颗发射部分失败。该卫星仍在工作。
2D轨道图
3D轨道图
轨道高度分析图
轨道倾角分析图
轨道综合分析图
查看轨道综合分析图